This is the latest recevied weather packets stored in our database for station/object WP3OF-1. If no packets are shown the sender has not sent any weather packets the latest 1 day(s).
| Time | Temp. | Humidity | Pressure | Rain* | Wind** | Luminosity | Snow |
|---|---|---|---|---|---|---|---|
| 1836274844 | 25.56° C | 93% | 1016.7 hPa | 0 mm | 0 m/s | - | - |
| 1836274542 | 25.56° C | 93% | 1016.5 hPa | 0 mm | 0 m/s | - | - |
| 1836274396 | 25.56° C | 93% | 1016.8 hPa | 0 mm | 0 m/s | - | - |
| 1836274241 | 25.56° C | 93% | 1016.6 hPa | 0 mm | 0 m/s | - | - |
| 1836273940 | 25.56° C | 93% | 1016.5 hPa | 0 mm | 0 m/s | - | - |
| 1778022740 | 26.11° C | 85% | 1017.8 hPa | 0 mm | 4.92 m/s, 98° | - | - |
| 1778022438 | 26.11° C | 85% | 1018.2 hPa | 0 mm | 4.02 m/s, 87° | - | - |
| 1778022134 | 26.11° C | 85% | 1018.2 hPa | 0 mm | 3.58 m/s, 94° | - | - |
| 1778021831 | 26.11° C | 85% | 1018 hPa | 0 mm | 3.58 m/s, 103° | - | - |
| 1778021528 | 26.11° C | 84% | 1017.8 hPa | 0 mm | 3.58 m/s, 97° | - | - |
| 1778021222 | 26.11° C | 84% | 1017.9 hPa | 0 mm | 3.13 m/s, 77° | - | - |
| 1778020921 | 26.11° C | 84% | 1017.9 hPa | 0 mm | 4.02 m/s, 108° | - | - |
| 1778020618 | 26.11° C | 84% | 1017.6 hPa | 0 mm | 4.47 m/s, 92° | - | - |
| 1778020314 | 26.67° C | 83% | 1017.4 hPa | 0 mm | 3.13 m/s, 109° | - | - |
| 1778020010 | 26.67° C | 83% | 1017.5 hPa | 0 mm | 3.13 m/s, 96° | - | - |
| 1778019706 | 26.67° C | 82% | 1017.5 hPa | 0 mm | 4.02 m/s, 75° | - | - |
| 1778019404 | 26.67° C | 82% | 1017.5 hPa | 0 mm | 4.92 m/s, 106° | - | - |
| 1778019100 | 26.67° C | 82% | 1017.1 hPa | 0 mm | 3.58 m/s, 120° | - | - |
| 1778018798 | 27.22° C | 81% | 1017 hPa | 0 mm | 5.36 m/s, 123° | - | - |
| 1778018495 | 27.22° C | 80% | 1017.4 hPa | 0 mm | 5.36 m/s, 129° | - | - |
| 1778018193 | 27.22° C | 80% | 1017.3 hPa | 0 mm | 4.92 m/s, 138° | - | - |
| 1778017891 | 27.22° C | 79% | 1017.3 hPa | 0 mm | 5.81 m/s, 119° | - | - |
| 1778017588 | 27.22° C | 79% | 1017.1 hPa | 0 mm | 4.47 m/s, 107° | - | - |
| 1778017285 | 27.22° C | 79% | 1017.2 hPa | 0 mm | 4.02 m/s, 131° | - | - |
| 1778016983 | 27.78° C | 78% | 1017 hPa | 0 mm | 3.58 m/s, 114° | - | - |
* Rain latest hour (hover to see other rain measurements)
** Current wind speed in m/s (hover to see current wind gust speed)